Regional Weather Roundup
Issued by NWS

Home | Current Version | Previous Version | Text Only | Print | Product List | Glossary On
Versions: 1 2 3 4 5 6 7 8 9 10 11 12 13 14 15 16 17 18 19 20 21 22 23 24 25 26 27 28 29 30 31 32 33 34 35 36 37 38 39 40 41 42 43 44 45 46 47 48 49 50
000
ASUS46 KPQR 152010
RWROR

OREGON REGIONAL WEATHER ROUNDUP
NATIONAL WEATHER SERVICE PORTLAND OR
100 PM PDT WED AUG 15 2018

NOTE: "FAIR" INDICATES FEW OR NO CLOUDS BELOW 12,000 FEET WITH
NO SIGNIFICANT WEATHER AND/OR OBSTRUCTIONS TO VISIBILITY.

ORZ001>013-152100-
NORTHWEST OREGON


CITY           SKY/WX    TMP DP  RH WIND       PRES   REMARKS
ASTORIA        CLOUDY    61  59  93 W5        29.96S
TILLAMOOK      CLOUDY    63  59  88 CALM      29.97S HAZE
NEWPORT        CLOUDY    61  59  94 W5        30.00S FOG
PORTLAND       CLOUDY    79  60  52 W6        29.89F SMOKE
VANCOUVER WA   SUNNY     78  61  55 VRB7      29.89F HAZE
SCAPPOOSE      SUNNY     79  61  53 VRB5      29.88F HAZE
HILLSBORO      SUNNY     80  60  50 VRB3      29.89F HAZE
AURORA         SUNNY     79  59  50 CALM      29.91F HAZE
MCMINNVILLE    SUNNY     77  60  55 CALM      29.90F HAZE
SALEM          SUNNY     78  57  48 N5        29.90F
CORVALLIS      SUNNY     76  60  57 NW5       29.93S
EUGENE         PTSUNNY   73  58  59 SW6       29.94S
$$

ORZ021-028-152100-
SOUTHWEST OREGON


CITY           SKY/WX    TMP DP  RH WIND       PRES   REMARKS
NORTH BEND     CLOUDY    63  57  82 W7        30.00R
BROOKINGS      CLOUDY    57  56  96 CALM      30.00S
ROSEBURG       SUNNY     78  58  49 VRB3      29.92F
SEXTON SUMMIT  SUNNY     77  58  51 CALM      30.06R
GRANTS PASS    NOT AVBL
MEDFORD        SUNNY     85  51  31 N3        29.89F SMOKE
$$

ORZ014>016-041-152100-
COLUMBIA GORGE


CITY           SKY/WX    TMP DP  RH WIND       PRES   REMARKS
TROUTDALE      SUNNY     79  59  50 VRB3      29.89F SMOKE
HOOD RIVER     SUNNY     81  54  39 S3        29.88F HAZE
THE DALLES     SUNNY     87  53  31 NW9       29.84F HAZE
$$

ORZ029>031-041-044-049-050-061>064-502-503-505>511-152100-
EASTERN OREGON


CITY           SKY/WX    TMP DP  RH WIND       PRES   REMARKS
MADRAS         MOSUNNY   82  37  20 N3        29.97F
REDMOND        PTSUNNY   85  39  19 SE8       29.99S SMOKE
BEND           MOSUNNY   86  34  15 VRB7      30.01S
PRINEVILLE     NOT AVBL
KLAMATH FALLS  PTSUNNY   81  48  31 CALM      30.06F HAZE
LAKEVIEW       CLOUDY    75  36  24 SE10      30.15R
HERMISTON      SUNNY     86  46  24 VRB5      29.86F
PENDLETON      SUNNY     94  37  13 N7G16     29.88F HAZE
JOHN DAY       MOSUNNY   83  36  18 W12       30.02R
MEACHAM        MOSUNNY   89  30  12 VRB5      30.02F
LA GRANDE      SUNNY     83  40  21 W6        29.98F
BAKER CITY     SUNNY     90  42  18 NW6       30.00F HAZE
BURNS          MOSUNNY   88  31  13 S10       30.05S
ROME             N/A     89  28  11 E5        30.01F
ONTARIO        SUNNY     90  40  17 E3        29.93F
$$



USA.gov is the U.S. government's official web portal to all federal, state and local government web resources and services.